Home > Weather > Quispamsis > Past weeks

Flag for Canada Weather for the Past 2 Weeks in Quispamsis, New Brunswick, Canada

Now
43 °F

Light rain. Overcast.


Feels Like: 38 °F
Forecast: 40 / 48 °F
Wind: 8 mph from East

Location: Saint John

Current Time: May 2, 2016 at 10:11:13 PM

Latest Report: May 2, 2016 at 9:00 PM


Visibility: 10 mi

Pressure: 30.01 "Hg

Humidity: 81%

Dew Point: 37 °F

Location of QuispamsisLocation

Historic Weather in Quispamsis — Graph

°F

Quispamsis Temperature Yesterday

Maximum temperature yesterday: 61 °F (at 3:00 PM)
Minimum temperature yesterday: 23 °F (at 4:00 AM)
Average temperature yesterday: 44 °F

High & Low Weather Summary for the Past Weeks

 TemperatureHumidityPressure
High72 °F (Apr 22, 2:00 PM)94% (Apr 23, 4:00 PM)30.28 "Hg (Apr 23, 4:00 PM)
Low18 °F (Apr 29, 6:00 AM)14% (Apr 30, 3:00 PM)29.73 "Hg (Apr 23, 5:00 PM)
Average42 °F54%29.99 "Hg
* Reported Apr 17 8:00 PM — May 2 8:00 PM, Quispamsis, Weather by CustomWeather, © 2016

Note: Actual official high and low records may vary slightly from our data, if they occured in-between our weather recording intervals... More about our weather records

Advertising

Quispamsis Weather History for the Previous 24 Hours

Scroll right to see more
 ConditionsComfort  
Time TempWeatherWind HumidityBarometerVisibility
8:00 PM
Mon, May 2
45 °FLight rain. Overcast.10 mph71%30.01 "Hg12 mi
7:00 PM48 °FOvercast.12 mph62%30.02 "Hg15 mi
6:00 PM52 °FOvercast.10 mph41%30.05 "Hg15 mi
5:00 PM52 °FOvercast.10 mph38%30.07 "Hg15 mi
4:00 PM54 °FOvercast.10 mph30%30.09 "Hg15 mi
3:00 PM54 °FOvercast.9 mph30%30.11 "Hg15 mi
2:00 PM52 °FOvercast.6 mph26%30.14 "Hg15 mi
1:00 PM50 °FOvercast.8 mph28%30.15 "Hg15 mi
12:00 PM50 °FOvercast.8 mph28%30.17 "Hg15 mi
11:00 AM50 °FOvercast.9 mph37%30.19 "Hg15 mi
10:00 AM46 °FOvercast.5 mph62%30.19 "Hg15 mi
9:00 AM46 °FOvercast.5 mph62%30.19 "Hg15 mi
8:00 AM43 °FOvercast.6 mph87%30.20 "Hg15 mi
7:00 AM41 °FOvercast.5 mph93%30.20 "Hg15 mi
6:00 AM41 °FOvercast.2 mph87%30.19 "Hg15 mi
5:00 AM39 °FOvercast.6 mph87%30.19 "Hg15 mi
4:00 AM39 °FOvercast.5 mph87%30.19 "Hg15 mi
3:00 AM41 °FOvercast.2 mph81%30.20 "Hg15 mi
2:00 AM41 °FOvercast.3 mph81%30.21 "Hg15 mi
1:00 AM41 °FOvercast.2 mph76%30.21 "Hg15 mi
12:00 AM43 °FOvercast.No wind76%30.20 "Hg15 mi
11:00 PM
Sun, May 1
43 °FOvercast.8 mph76%30.21 "Hg15 mi
10:00 PM45 °FOvercast.7 mph66%30.22 "Hg15 mi
Weather by CustomWeather, © 2016

See weather overviewHow to use our weather pages